| time (UTC) | temp C | wind direction | speed KPH | gust KPH | rain 1hr cm | rain 24hr cm | rain mn cm | humidity % | barometer mb |
| 20260509192320 | 19 | 327 | 8.0 | 19.3 | 0.00 | 0.00 | 0.00 | 70 | 1008.6 |
| 20260509191820 | 19 | 311 | 9.7 | 19.3 | 0.00 | 0.00 | 0.00 | 69 | 1008.6 |
| 20260509191320 | 19 | 340 | 11.3 | 19.3 | 0.00 | 0.00 | 0.00 | 69 | 1008.7 |
| 20260509190318 | 20 | 345 | 9.7 | 16.1 | 0.00 | 0.00 | 0.00 | 67 | 1008.7 |
| 20260509185812 | 19 | 348 | 9.7 | 17.7 | 0.00 | 0.00 | 0.00 | 67 | 1008.6 |
| 20260509185313 | 20 | 319 | 9.7 | 20.9 | 0.00 | 0.00 | 0.00 | 66 | 1008.6 |
| 20260509184814 | 20 | 319 | 8.0 | 20.9 | 0.00 | 0.00 | 0.00 | 67 | 1008.6 |
| 20260509184314 | 20 | 303 | 8.0 | 16.1 | 0.00 | 0.00 | 0.00 | 67 | 1008.6 |
| 20260509183809 | 21 | 313 | 8.0 | 14.5 | 0.00 | 0.00 | 0.00 | 65 | 1008.6 |
| 20260509183307 | 21 | 307 | 6.4 | 11.3 | 0.00 | 0.00 | 0.00 | 65 | 1008.6 |
| 20260509181757 | 22 | 317 | 4.8 | 12.9 | 0.00 | 0.00 | 0.00 | 63 | 1008.7 |
| 20260509181254 | 22 | 294 | 4.8 | 12.9 | 0.00 | 0.00 | 0.00 | 64 | 1009.0 |
| 20260509180249 | 22 | 323 | 3.2 | 11.3 | 0.00 | 0.00 | 0.00 | 62 | 1009.0 |
| 20260509175248 | 22 | 336 | 0.0 | 8.0 | 0.00 | 0.00 | 0.00 | 64 | 1009.0 |
| 20260509174751 | 22 | 9 | 0.0 | 8.0 | 0.00 | 0.00 | 0.00 | 64 | 1009.0 |
| 20260509174244 | 21 | 5 | 0.0 | 8.0 | 0.00 | 0.00 | 0.00 | 66 | 1009.0 |
| 20260509173741 | 21 | 5 | 0.0 | 6.4 | 0.00 | 0.00 | 0.00 | 67 | 1009.0 |
| 20260509173240 | 21 | 355 | 0.0 | 6.4 | 0.00 | 0.00 | 0.00 | 69 | 1009.0 |
| 20260509172740 | 20 | 5 | 0.0 | 4.8 | 0.00 | 0.00 | 0.00 | 71 | 1009.0 |
| 20260509172240 | 19 | 5 | 0.0 | 1.6 | 0.00 | 0.00 | 0.00 | 74 | 1009.0 |
| 20260509171742 | 18 | 59 | 0.0 | 1.6 | 0.00 | 0.00 | 0.00 | 76 | 1009.0 |
| 20260509171241 | 18 | 65 | 0.0 | 1.6 | 0.00 | 0.00 | 0.00 | 76 | 1009.1 |
| 20260509170739 | 18 | 65 | 0.0 | 0.0 | 0.00 | 0.00 | 0.00 | 77 | 1009.1 |
| 20260509170235 | 17 | 65 | 0.0 | 0.0 | 0.00 | 0.00 | 0.00 | 77 | 1009.1 |
| 20260509165738 | 17 | 65 | 0.0 | 0.0 | 0.00 | 0.00 | 0.00 | 79 | 1009.1 |
| 20260509165237 | 16 | 59 | 0.0 | 0.0 | 0.00 | 0.00 | 0.00 | 83 | 1009.1 |
| 20260509164732 | 16 | 58 | 0.0 | 0.0 | 0.00 | 0.00 | 0.00 | 85 | 1009.1 |
| 20260509164228 | 15 | 58 | 0.0 | 0.0 | 0.00 | 0.00 | 0.00 | 87 | 1009.2 |
| 20260509163225 | 14 | 57 | 0.0 | 0.0 | 0.00 | 0.00 | 0.00 | 92 | 1009.2 |
| 20260509162723 | 13 | 0 | 0.0 | 0.0 | 0.00 | 0.00 | 0.00 | 94 | 1009.4 |
| 20260509162219 | 13 | 0 | 0.0 | 0.0 | 0.00 | 0.00 | 0.00 | 95 | 1009.4 |
| 20260509161213 | 12 | 355 | 0.0 | 0.0 | 0.00 | 0.00 | 0.00 | 96 | 1009.3 |
| 20260509160712 | 12 | 355 | 0.0 | 0.0 | 0.00 | 0.00 | 0.00 | 96 | 1009.3 |
| 20260509160206 | 12 | 346 | 0.0 | 0.0 | 0.00 | 0.00 | 0.00 | 97 | 1009.3 |
| 20260509155704 | 11 | 329 | 0.0 | 0.0 | 0.00 | 0.00 | 0.00 | 96 | 1009.3 |
| 20260509155204 | 11 | 329 | 0.0 | 0.0 | 0.00 | 0.00 | 0.00 | 96 | 1009.3 |
| 20260509154209 | 11 | 329 | 0.0 | 0.0 | 0.00 | 0.00 | 0.00 | 97 | 1009.5 |
| 20260509153704 | 11 | 329 | 0.0 | 0.0 | 0.00 | 0.00 | 0.00 | 96 | 1009.5 |
| 20260509152701 | 11 | 329 | 0.0 | 0.0 | 0.00 | 0.00 | 0.00 | 96 | 1009.4 |
| 20260509152201 | 10 | 329 | 0.0 | 3.2 | 0.00 | 0.00 | 0.00 | 96 | 1009.4 |
| 20260509151159 | 10 | 329 | 0.0 | 3.2 | 0.00 | 0.00 | 0.00 | 96 | 1009.3 |
| 20260509150658 | 10 | 329 | 0.0 | 3.2 | 0.00 | 0.00 | 0.00 | 96 | 1009.3 |
| 20260509145655 | 10 | 329 | 1.6 | 3.2 | 0.00 | 0.00 | 0.00 | 96 | 1009.4 |
| 20260509145149 | 10 | 329 | 1.6 | 4.8 | 0.00 | 0.00 | 0.00 | 96 | 1009.4 |
| 20260509143643 | 10 | 329 | 1.6 | 4.8 | 0.00 | 0.00 | 0.00 | 96 | 1009.4 |
| 20260509143140 | 10 | 329 | 1.6 | 4.8 | 0.00 | 0.00 | 0.00 | 96 | 1009.4 |
| 20260509142640 | 10 | 329 | 1.6 | 4.8 | 0.00 | 0.00 | 0.00 | 96 | 1009.5 |
| 20260509142142 | 10 | 329 | 1.6 | 4.8 | 0.00 | 0.00 | 0.00 | 96 | 1009.5 |
| 20260509141636 | 10 | 329 | 0.0 | 3.2 | 0.00 | 0.00 | 0.00 | 96 | 1009.5 |
| 20260509140635 | 10 | 330 | 0.0 | 0.0 | 0.00 | 0.00 | 0.00 | 96 | 1009.5 |
| 20260509140131 | 10 | 331 | 0.0 | 3.2 | 0.00 | 0.00 | 0.00 | 96 | 1009.5 |
| 20260509135632 | 9 | 330 | 1.6 | 4.8 | 0.00 | 0.00 | 0.00 | 96 | 1009.5 |
| 20260509135125 | 9 | 331 | 1.6 | 4.8 | 0.00 | 0.00 | 0.00 | 96 | 1009.5 |
| 20260509134625 | 9 | 330 | 1.6 | 4.8 | 0.00 | 0.00 | 0.00 | 95 | 1009.5 |
| 20260509134124 | 10 | 330 | 0.0 | 3.2 | 0.00 | 0.00 | 0.00 | 95 | 1009.2 |
| 20260509133623 | 10 | 330 | 0.0 | 1.6 | 0.00 | 0.00 | 0.00 | 95 | 1009.2 |
| 20260509133117 | 10 | 330 | 0.0 | 1.6 | 0.00 | 0.00 | 0.00 | 95 | 1009.2 |
| 20260509132615 | 10 | 330 | 0.0 | 1.6 | 0.00 | 0.00 | 0.00 | 96 | 1009.0 |
| 20260509132116 | 10 | 329 | 0.0 | 0.0 | 0.00 | 0.00 | 0.00 | 96 | 1009.0 |
| 20260509131110 | 10 | 329 | 0.0 | 0.0 | 0.00 | 0.00 | 0.00 | 95 | 1008.9 |
| 20260509130609 | 10 | 329 | 0.0 | 0.0 | 0.00 | 0.00 | 0.00 | 95 | 1008.9 |
| 20260509125604 | 10 | 329 | 0.0 | 0.0 | 0.00 | 0.00 | 0.00 | 95 | 1008.5 |
| 20260509125105 | 10 | 329 | 0.0 | 0.0 | 0.00 | 0.00 | 0.00 | 95 | 1008.5 |
| 20260509124600 | 10 | 329 | 0.0 | 0.0 | 0.00 | 0.00 | 0.00 | 95 | 1008.5 |
| 20260509123558 | 10 | 329 | 0.0 | 0.0 | 0.00 | 0.00 | 0.00 | 95 | 1008.6 |
| 20260509123056 | 10 | 329 | 0.0 | 0.0 | 0.00 | 0.00 | 0.00 | 95 | 1008.6 |
| 20260509122549 | 10 | 329 | 0.0 | 0.0 | 0.00 | 0.00 | 0.00 | 95 | 1008.6 |
| 20260509122046 | 10 | 329 | 0.0 | 4.8 | 0.00 | 0.00 | 0.00 | 95 | 1008.6 |
| 20260509121050 | 10 | 329 | 0.0 | 1.6 | 0.00 | 0.00 | 0.00 | 95 | 1008.9 |
| 20260509120541 | 10 | 329 | 0.0 | 4.8 | 0.00 | 0.00 | 0.00 | 95 | 1008.9 |
| 20260509120041 | 10 | 329 | 1.6 | 4.8 | 0.00 | 0.00 | 0.00 | 95 | 1008.9 |
| 20260509115538 | 10 | 329 | 0.0 | 3.2 | 0.00 | 0.00 | 0.00 | 95 | 1008.9 |
| 20260509115034 | 10 | 329 | 0.0 | 1.6 | 0.00 | 0.00 | 0.00 | 95 | 1008.9 |
| 20260509114032 | 10 | 329 | 1.6 | 3.2 | 0.00 | 0.00 | 0.00 | 94 | 1008.9 |
| 20260509113528 | 10 | 329 | 0.0 | 3.2 | 0.00 | 0.00 | 0.00 | 95 | 1008.9 |
| 20260509113030 | 10 | 329 | 0.0 | 3.2 | 0.00 | 0.00 | 0.00 | 95 | 1008.9 |
| 20260509110520 | 10 | 329 | 0.0 | 4.8 | 0.00 | 0.00 | 0.00 | 94 | 1009.1 |
| 20260509105515 | 10 | 329 | 0.0 | 4.8 | 0.00 | 0.00 | 0.00 | 94 | 1009.1 |
| 20260509105007 | 10 | 329 | 1.6 | 4.8 | 0.00 | 0.00 | 0.00 | 94 | 1009.1 |
| 20260509104507 | 10 | 329 | 1.6 | 4.8 | 0.00 | 0.00 | 0.00 | 94 | 1009.1 |
| 20260509104011 | 10 | 329 | 1.6 | 4.8 | 0.00 | 0.00 | 0.00 | 94 | 1009.3 |
| 20260509103511 | 10 | 329 | 0.0 | 0.0 | 0.00 | 0.00 | 0.00 | 94 | 1009.3 |
| 20260509103001 | 10 | 329 | 0.0 | 0.0 | 0.00 | 0.00 | 0.00 | 94 | 1009.3 |
| 20260509102459 | 10 | 329 | 0.0 | 0.0 | 0.00 | 0.00 | 0.00 | 94 | 1009.2 |
| 20260509101959 | 10 | 329 | 0.0 | 0.0 | 0.00 | 0.00 | 0.00 | 94 | 1009.2 |
| 20260509101457 | 10 | 329 | 0.0 | 0.0 | 0.00 | 0.00 | 0.00 | 94 | 1009.2 |
| 20260509100952 | 10 | 329 | 0.0 | 0.0 | 0.00 | 0.00 | 0.00 | 93 | 1009.4 |
| 20260509095954 | 11 | 329 | 0.0 | 0.0 | 0.00 | 0.00 | 0.00 | 93 | 1009.4 |
| 20260509095448 | 11 | 329 | 0.0 | 0.0 | 0.00 | 0.00 | 0.00 | 94 | 1009.4 |
| 20260509094947 | 11 | 329 | 0.0 | 0.0 | 0.00 | 0.00 | 0.00 | 94 | 1009.4 |
| 20260509094441 | 10 | 329 | 0.0 | 0.0 | 0.00 | 0.00 | 0.00 | 94 | 1009.4 |
| 20260509093934 | 10 | 329 | 0.0 | 0.0 | 0.00 | 0.00 | 0.00 | 93 | 1009.5 |
| 20260509093431 | 10 | 329 | 0.0 | 0.0 | 0.00 | 0.00 | 0.00 | 93 | 1009.5 |
| 20260509092928 | 10 | 329 | 0.0 | 3.2 | 0.00 | 0.00 | 0.00 | 93 | 1009.5 |
| 20260509092424 | 11 | 329 | 0.0 | 3.2 | 0.00 | 0.00 | 0.00 | 93 | 1009.4 |
| 20260509091923 | 11 | 329 | 0.0 | 3.2 | 0.00 | 0.00 | 0.00 | 93 | 1009.4 |
| 20260509091419 | 11 | 329 | 0.0 | 3.2 | 0.00 | 0.00 | 0.00 | 93 | 1009.4 |
| 20260509090923 | 11 | 329 | 0.0 | 1.6 | 0.00 | 0.00 | 0.00 | 93 | 1009.5 |
| 20260509090423 | 11 | 329 | 0.0 | 1.6 | 0.00 | 0.00 | 0.00 | 93 | 1009.5 |
| 20260509085913 | 11 | 329 | 0.0 | 3.2 | 0.00 | 0.00 | 0.00 | 93 | 1009.5 |
| 20260509085413 | 11 | 329 | 0.0 | 3.2 | 0.00 | 0.00 | 0.00 | 93 | 1009.5 |
| 20260509084908 | 10 | 329 | 0.0 | 3.2 | 0.00 | 0.00 | 0.00 | 93 | 1009.5 |
| 20260509083905 | 10 | 329 | 0.0 | 0.0 | 0.00 | 0.00 | 0.00 | 93 | 1009.7 |
| 20260509083405 | 10 | 329 | 0.0 | 0.0 | 0.00 | 0.00 | 0.00 | 93 | 1009.7 |
| 20260509082405 | 10 | 329 | 0.0 | 3.2 | 0.00 | 0.00 | 0.00 | 92 | 1009.8 |
| 20260509081401 | 10 | 329 | 0.0 | 3.2 | 0.00 | 0.00 | 0.00 | 93 | 1009.8 |
| 20260509080353 | 11 | 329 | 1.6 | 4.8 | 0.00 | 0.00 | 0.00 | 92 | 1009.8 |
| 20260509075853 | 11 | 329 | 1.6 | 4.8 | 0.00 | 0.00 | 0.00 | 92 | 1009.9 |
| 20260509075352 | 11 | 329 | 1.6 | 4.8 | 0.00 | 0.00 | 0.00 | 92 | 1009.9 |
| 20260509074849 | 11 | 329 | 1.6 | 6.4 | 0.00 | 0.00 | 0.00 | 92 | 1009.9 |
| 20260509074346 | 11 | 329 | 0.0 | 6.4 | 0.00 | 0.00 | 0.00 | 92 | 1009.9 |
| 20260509073842 | 11 | 329 | 1.6 | 6.4 | 0.00 | 0.00 | 0.00 | 92 | 1009.9 |
| 20260509073347 | 11 | 329 | 1.6 | 6.4 | 0.00 | 0.00 | 0.00 | 91 | 1009.9 |
| 20260509072842 | 11 | 329 | 1.6 | 4.8 | 0.00 | 0.00 | 0.00 | 91 | 1010.0 |
| 20260509072340 | 11 | 329 | 1.6 | 4.8 | 0.00 | 0.00 | 0.00 | 91 | 1010.0 |
| 20260509071840 | 11 | 329 | 1.6 | 4.8 | 0.00 | 0.00 | 0.00 | 91 | 1010.0 |
| 20260509071339 | 11 | 329 | 1.6 | 4.8 | 0.00 | 0.00 | 0.00 | 91 | 1010.0 |
| 20260509070840 | 11 | 329 | 1.6 | 4.8 | 0.00 | 0.00 | 0.00 | 91 | 1010.0 |
| 20260509070339 | 11 | 329 | 0.0 | 3.2 | 0.00 | 0.00 | 0.00 | 91 | 1010.0 |
| 20260509065843 | 11 | 329 | 0.0 | 3.2 | 0.00 | 0.00 | 0.00 | 91 | 1010.1 |
| 20260509064840 | 11 | 329 | 1.6 | 4.8 | 0.00 | 0.00 | 0.00 | 91 | 1010.1 |
| 20260509064334 | 11 | 329 | 1.6 | 4.8 | 0.00 | 0.00 | 0.00 | 91 | 1010.2 |
| 20260509063836 | 11 | 329 | 0.0 | 4.8 | 0.00 | 0.00 | 0.00 | 91 | 1010.2 |
| 20260509062830 | 12 | 329 | 0.0 | 3.2 | 0.00 | 0.00 | 0.00 | 91 | 1010.5 |
| 20260509062327 | 12 | 329 | 0.0 | 3.2 | 0.00 | 0.00 | 0.00 | 91 | 1010.5 |
| 20260509061327 | 12 | 329 | 0.0 | 3.2 | 0.00 | 0.00 | 0.00 | 91 | 1010.5 |
| 20260509060824 | 11 | 329 | 1.6 | 4.8 | 0.00 | 0.00 | 0.00 | 91 | 1010.5 |
| 20260509060324 | 11 | 329 | 1.6 | 4.8 | 0.00 | 0.00 | 0.00 | 91 | 1010.5 |
| 20260509055822 | 11 | 329 | 1.6 | 4.8 | 0.00 | 0.00 | 0.00 | 91 | 1010.5 |
| 20260509055324 | 11 | 329 | 1.6 | 4.8 | 0.00 | 0.00 | 0.00 | 91 | 1010.5 |
| 20260509054820 | 11 | 329 | 3.2 | 8.0 | 0.00 | 0.00 | 0.00 | 91 | 1010.5 |
| 20260509054326 | 11 | 329 | 3.2 | 8.0 | 0.00 | 0.00 | 0.00 | 91 | 1010.5 |
| 20260509053820 | 11 | 329 | 3.2 | 6.4 | 0.00 | 0.00 | 0.00 | 91 | 1010.5 |
| 20260509052817 | 11 | 329 | 0.0 | 3.2 | 0.00 | 0.00 | 0.00 | 91 | 1010.5 |
| 20260509052316 | 11 | 329 | 0.0 | 3.2 | 0.00 | 0.00 | 0.00 | 91 | 1010.5 |
| 20260509051814 | 11 | 329 | 1.6 | 6.4 | 0.00 | 0.00 | 0.00 | 91 | 1010.5 |
| 20260509051306 | 11 | 329 | 1.6 | 6.4 | 0.00 | 0.00 | 0.00 | 91 | 1010.4 |
| 20260509050808 | 11 | 329 | 1.6 | 6.4 | 0.00 | 0.00 | 0.00 | 90 | 1010.4 |
| 20260509050305 | 11 | 329 | 1.6 | 4.8 | 0.00 | 0.00 | 0.00 | 90 | 1010.4 |
| 20260509045806 | 11 | 329 | 0.0 | 3.2 | 0.00 | 0.00 | 0.00 | 90 | 1010.2 |
| 20260509045306 | 12 | 329 | 0.0 | 3.2 | 0.00 | 0.00 | 0.00 | 90 | 1010.2 |
| 20260509044800 | 12 | 329 | 1.6 | 6.4 | 0.00 | 0.00 | 0.00 | 90 | 1010.2 |
| 20260509044300 | 12 | 329 | 1.6 | 6.4 | 0.00 | 0.00 | 0.00 | 90 | 1010.1 |
| 20260509043758 | 12 | 329 | 1.6 | 4.8 | 0.00 | 0.00 | 0.00 | 90 | 1010.1 |
| 20260509043258 | 12 | 329 | 1.6 | 4.8 | 0.00 | 0.00 | 0.00 | 90 | 1010.1 |
| 20260509042254 | 12 | 329 | 1.6 | 4.8 | 0.00 | 0.00 | 0.00 | 89 | 1010.0 |
| 20260509041757 | 12 | 329 | 0.0 | 3.2 | 0.00 | 0.00 | 0.00 | 89 | 1010.0 |
| 20260509041252 | 12 | 329 | 1.6 | 6.4 | 0.00 | 0.00 | 0.00 | 89 | 1009.9 |
| 20260509040750 | 12 | 329 | 1.6 | 6.4 | 0.00 | 0.00 | 0.00 | 89 | 1009.9 |
| 20260509040249 | 12 | 329 | 1.6 | 6.4 | 0.00 | 0.00 | 0.00 | 89 | 1009.9 |
| 20260509035748 | 12 | 329 | 1.6 | 6.4 | 0.00 | 0.00 | 0.00 | 88 | 1009.9 |
| 20260509035246 | 12 | 329 | 1.6 | 6.4 | 0.00 | 0.00 | 0.00 | 88 | 1009.9 |
| 20260509034741 | 12 | 329 | 1.6 | 8.0 | 0.00 | 0.00 | 0.00 | 87 | 1009.9 |
| 20260509034241 | 12 | 329 | 0.0 | 8.0 | 0.00 | 0.00 | 0.00 | 87 | 1009.8 |
| 20260509033738 | 12 | 329 | 0.0 | 3.2 | 0.00 | 0.00 | 0.00 | 86 | 1009.8 |
| 20260509033240 | 12 | 329 | 1.6 | 6.4 | 0.00 | 0.00 | 0.00 | 86 | 1009.8 |
| 20260509032732 | 12 | 329 | 1.6 | 6.4 | 0.00 | 0.00 | 0.00 | 86 | 1009.5 |
| 20260509032232 | 13 | 329 | 1.6 | 6.4 | 0.00 | 0.00 | 0.00 | 85 | 1009.5 |
| 20260509031730 | 13 | 329 | 3.2 | 6.4 | 0.00 | 0.00 | 0.00 | 85 | 1009.6 |
| 20260509031227 | 13 | 329 | 1.6 | 6.4 | 0.00 | 0.00 | 0.00 | 84 | 1009.5 |
| 20260509030726 | 13 | 329 | 1.6 | 6.4 | 0.00 | 0.00 | 0.00 | 84 | 1009.5 |
| 20260509030224 | 13 | 329 | 1.6 | 6.4 | 0.00 | 0.00 | 0.00 | 84 | 1009.5 |
| 20260509025719 | 13 | 329 | 1.6 | 4.8 | 0.00 | 0.00 | 0.00 | 83 | 1009.4 |
| 20260509025224 | 13 | 329 | 1.6 | 8.0 | 0.00 | 0.00 | 0.00 | 83 | 1009.4 |
| 20260509024722 | 13 | 329 | 3.2 | 8.0 | 0.00 | 0.00 | 0.00 | 83 | 1009.4 |
| 20260509023717 | 14 | 329 | 4.8 | 9.7 | 0.00 | 0.00 | 0.00 | 82 | 1009.1 |
| 20260509023216 | 14 | 329 | 4.8 | 9.7 | 0.00 | 0.00 | 0.00 | 81 | 1009.1 |
| 20260509022712 | 14 | 331 | 3.2 | 8.0 | 0.00 | 0.00 | 0.00 | 81 | 1009.0 |
| 20260509021713 | 15 | 327 | 6.4 | 9.7 | 0.00 | 0.00 | 0.00 | 80 | 1009.0 |
| 20260509021212 | 15 | 324 | 6.4 | 12.9 | 0.00 | 0.00 | 0.00 | 79 | 1009.0 |
| 20260509020713 | 15 | 327 | 6.4 | 16.1 | 0.00 | 0.00 | 0.00 | 78 | 1009.0 |
| 20260509020212 | 15 | 314 | 6.4 | 16.1 | 0.00 | 0.00 | 0.00 | 77 | 1009.0 |
| 20260509015708 | 16 | 335 | 4.8 | 9.7 | 0.00 | 0.00 | 0.00 | 77 | 1009.0 |
| 20260509015208 | 16 | 315 | 6.4 | 12.9 | 0.00 | 0.00 | 0.00 | 76 | 1009.0 |
| 20260509014707 | 16 | 309 | 6.4 | 14.5 | 0.00 | 0.00 | 0.00 | 76 | 1009.0 |
| 20260509013705 | 16 | 317 | 8.0 | 16.1 | 0.00 | 0.00 | 0.00 | 75 | 1009.0 |
| 20260509013207 | 16 | 314 | 8.0 | 14.5 | 0.00 | 0.00 | 0.00 | 75 | 1009.0 |
| 20260509012702 | 16 | 323 | 6.4 | 14.5 | 0.00 | 0.00 | 0.00 | 73 | 1009.0 |
| 20260509011658 | 17 | 347 | 8.0 | 17.7 | 0.00 | 0.00 | 0.00 | 73 | 1009.0 |
| 20260509010150 | 17 | 319 | 9.7 | 22.5 | 0.00 | 0.00 | 0.00 | 72 | 1008.9 |
| 20260509005649 | 17 | 321 | 8.0 | 16.1 | 0.00 | 0.00 | 0.00 | 72 | 1009.0 |
| 20260509005146 | 18 | 305 | 8.0 | 17.7 | 0.00 | 0.00 | 0.00 | 71 | 1009.0 |
| 20260509004643 | 18 | 316 | 8.0 | 17.7 | 0.00 | 0.00 | 0.00 | 69 | 1009.0 |
| 20260509004141 | 18 | 336 | 6.4 | 14.5 | 0.00 | 0.00 | 0.00 | 69 | 1009.1 |
| 20260509003642 | 18 | 321 | 6.4 | 14.5 | 0.00 | 0.00 | 0.00 | 69 | 1009.1 |
| 20260509002640 | 18 | 315 | 8.0 | 17.7 | 0.00 | 0.00 | 0.00 | 69 | 1009.2 |
| 20260509002134 | 18 | 313 | 8.0 | 17.7 | 0.00 | 0.00 | 0.00 | 68 | 1009.2 |
| 20260509001635 | 18 | 294 | 8.0 | 22.5 | 0.00 | 0.00 | 0.00 | 68 | 1009.2 |
| 20260509001133 | 19 | 316 | 8.0 | 22.5 | 0.00 | 0.00 | 0.00 | 67 | 1009.3 |
| 20260509000633 | 19 | 5 | 8.0 | 16.1 | 0.00 | 0.00 | 0.00 | 67 | 1009.3 |
| 20260509000133 | 19 | 318 | 8.0 | 14.5 | 0.00 | 0.00 | 0.00 | 67 | 1009.3 |
| 20260508235632 | 19 | 351 | 8.0 | 19.3 | 0.00 | 0.00 | 0.00 | 67 | 1009.3 |
| 20260508235129 | 19 | 310 | 8.0 | 19.3 | 0.00 | 0.00 | 0.00 | 67 | 1009.3 |
| 20260508233619 | 19 | 290 | 9.7 | 19.3 | 0.00 | 0.00 | 0.00 | 68 | 1009.6 |
| 20260508232618 | 19 | 355 | 9.7 | 20.9 | 0.00 | 0.00 | 0.00 | 67 | 1009.7 |
| 20260508232119 | 19 | 21 | 11.3 | 24.1 | 0.00 | 0.00 | 0.00 | 67 | 1009.7 |
| 20260508231617 | 19 | 299 | 11.3 | 24.1 | 0.00 | 0.00 | 0.00 | 65 | 1009.7 |
| 20260508231112 | 20 | 288 | 9.7 | 20.9 | 0.00 | 0.00 | 0.00 | 64 | 1009.8 |
| 20260508230611 | 20 | 322 | 8.0 | 17.7 | 0.00 | 0.00 | 0.00 | 65 | 1009.8 |
| 20260508230111 | 20 | 309 | 8.0 | 16.1 | 0.00 | 0.00 | 0.00 | 65 | 1009.8 |
| 20260508225611 | 20 | 343 | 8.0 | 19.3 | 0.00 | 0.00 | 0.00 | 66 | 1009.8 |
| 20260508225112 | 20 | 313 | 9.7 | 20.9 | 0.00 | 0.00 | 0.00 | 66 | 1009.8 |
| 20260508224608 | 20 | 313 | 11.3 | 20.9 | 0.00 | 0.00 | 0.00 | 65 | 1009.8 |
| 20260508224110 | 20 | 285 | 8.0 | 17.7 | 0.00 | 0.00 | 0.00 | 64 | 1010.2 |
| 20260508223609 | 20 | 294 | 8.0 | 17.7 | 0.00 | 0.00 | 0.00 | 64 | 1010.2 |
| 20260508223107 | 20 | 309 | 9.7 | 22.5 | 0.00 | 0.00 | 0.00 | 65 | 1010.2 |
| 20260508222609 | 20 | 266 | 9.7 | 22.5 | 0.00 | 0.00 | 0.00 | 64 | 1010.2 |
| 20260508222107 | 21 | 290 | 8.0 | 17.7 | 0.00 | 0.00 | 0.00 | 64 | 1010.2 |
| 20260508221606 | 20 | 313 | 9.7 | 17.7 | 0.00 | 0.00 | 0.00 | 65 | 1010.2 |
| 20260508221107 | 21 | 303 | 8.0 | 17.7 | 0.00 | 0.00 | 0.00 | 65 | 1010.5 |
| 20260508220605 | 21 | 285 | 8.0 | 17.7 | 0.00 | 0.00 | 0.00 | 64 | 1010.5 |
| 20260508220109 | 21 | 310 | 8.0 | 17.7 | 0.00 | 0.00 | 0.00 | 64 | 1010.5 |
| 20260508215605 | 21 | 314 | 8.0 | 17.7 | 0.00 | 0.00 | 0.00 | 64 | 1010.7 |
| 20260508215106 | 21 | 325 | 8.0 | 16.1 | 0.00 | 0.00 | 0.00 | 66 | 1010.7 |
| 20260508214605 | 20 | 320 | 8.0 | 20.9 | 0.00 | 0.00 | 0.00 | 66 | 1010.7 |
| 20260508214103 | 20 | 301 | 8.0 | 20.9 | 0.00 | 0.00 | 0.00 | 64 | 1010.7 |
| 20260508213602 | 21 | 5 | 6.4 | 16.1 | 0.00 | 0.00 | 0.00 | 65 | 1010.7 |
| 20260508212100 | 19 | 304 | 11.3 | 20.9 | 0.00 | 0.00 | 0.00 | 69 | 1010.8 |
| 20260508211559 | 19 | 309 | 11.3 | 22.5 | 0.00 | 0.00 | 0.00 | 68 | 1010.8 |
| 20260508211057 | 20 | 321 | 11.3 | 22.5 | 0.00 | 0.00 | 0.00 | 67 | 1010.8 |
| 20260508210558 | 20 | 329 | 11.3 | 20.9 | 0.00 | 0.00 | 0.00 | 67 | 1010.8 |
| 20260508210057 | 20 | 311 | 11.3 | 22.5 | 0.00 | 0.00 | 0.00 | 67 | 1010.8 |
| 20260508205553 | 20 | 321 | 11.3 | 22.5 | 0.00 | 0.00 | 0.00 | 66 | 1010.8 |
| 20260508205053 | 21 | 321 | 9.7 | 19.3 | 0.00 | 0.00 | 0.00 | 64 | 1010.8 |
| 20260508204553 | 21 | 5 | 9.7 | 17.7 | 0.00 | 0.00 | 0.00 | 64 | 1010.8 |
| 20260508203553 | 21 | 313 | 8.0 | 17.7 | 0.00 | 0.00 | 0.00 | 62 | 1011.0 |
| 20260508203052 | 21 | 307 | 8.0 | 17.7 | 0.00 | 0.00 | 0.00 | 64 | 1011.0 |
| 20260508202552 | 21 | 314 | 9.7 | 17.7 | 0.00 | 0.00 | 0.00 | 64 | 1011.1 |
| 20260508202053 | 21 | 314 | 9.7 | 17.7 | 0.00 | 0.00 | 0.00 | 64 | 1011.1 |
| 20260508200051 | 21 | 319 | 8.0 | 14.5 | 0.00 | 0.00 | 0.00 | 64 | 1011.2 |
| 20260508195542 | 21 | 309 | 8.0 | 14.5 | 0.00 | 0.00 | 0.00 | 65 | 1011.2 |
| 20260508195043 | 21 | 317 | 6.4 | 12.9 | 0.00 | 0.00 | 0.00 | 65 | 1011.2 |
| 20260508194541 | 21 | 317 | 6.4 | 14.5 | 0.00 | 0.00 | 0.00 | 65 | 1011.2 |
| 20260508194038 | 21 | 321 | 8.0 | 14.5 | 0.00 | 0.00 | 0.00 | 65 | 1011.3 |
| 20260508193540 | 21 | 313 | 6.4 | 14.5 | 0.00 | 0.00 | 0.00 | 64 | 1011.3 |
| 20260508193040 | 21 | 321 | 6.4 | 14.5 | 0.00 | 0.00 | 0.00 | 64 | 1011.3 |